CAPE
3 0 0 0 0 0 0 0 0 0 1 0 0 3 27 25 32 8 0 0 0 0 0 0 0 0 0 0 0 0 0 0 0 0 0 0 1 0
1 1 0 1 0 0 0 0 0 0 0 0 0 6 34 45 34 22 1 0 0 0 0 0 0 0 0 0 0 0 0 0 0 0 1 2 2 3
1 1 1 1 1 1 0 0 0 0 0 0 3 15 28 41 1 0 0 0 0 0 0 0 0 0 0 0 0 0 0 1 1 1 2 4 4 4
0 1 1 1 1 1 1 1 1 0 0 5 4 8 36 31 20 1 0 0 0 0 0 0 0 0 2 0 0 0 0 0 0 0 1 2 3 2
0 1 1 1 2 1 1 1 1 0 0 0 0 18 15 9 0 0 0 5 5 2 2 2 2 2 3 4 3 4 5 6 8 7 5 4 3 1
1 1 1 0 2 2 1 1 1 1 0 1 3 11 13 5 0 0 0 8 8 4 7 3 3 5 6 7 8 8 7 6 5 4 3 0 0 0
1 1 1 0 0 0 1 1 1 2 0 0 0 5 3 0 1 0 0 2 8 10 7 4 4 4 4 4 4 5 4 4 3 0 0 0 0 0
0 0 0 0 0 0 0 0 3 0 1 1 0 0 0 1 0 0 0 0 0 5 5 7 1 2 1 1 3 3 2 1 0 0 0 0 0 0
0 0 0 0 0 0 0 0 0 0 0 0 0 0 0 1 0 0 0 0 0 7 1 7 1 2 2 3 3 1 0 0 0 0 0 0 0 0
0 0 0 0 0 0 0 0 0 0 0 0 0 0 0 0 0 0 0 4 7 5 0 3 1 3 1 2 2 2 1 0 0 0 0 0 0 0
0 0 0 0 0 0 0 0 4 10 14 17 15 12 9 6 1 0 0 0 2 8 1 1 2 2 1 1 1 1 0 1 0 0 0 0 0 0
0 0 0 0 0 0 0 0 0 8 10 9 11 9 3 3 2 1 2 0 1 5 1 0 4 0 0 0 0 0 0 0 0 0 0 0 0 0
0 0 0 0 0 0 0 0 1 17 10 5 5 5 4 4 4 3 1 0 0 1 1 0 1 0 0 0 0 0 0 0 0 0 0 0 0 0
4 13 11 6 3 3 3 11 19 8 6 5 4 5 5 7 4 3 2 1 2 0 1 0 1 0 0 0 0 0 0 0 0 0 0 0 0 0
13 11 12 18 15 15 18 10 3 2 4 1 5 8 5 2 2 0 0 0 0 0 0 0 0 0 0 0 0 0 0 0 0 0 0 0 0 0
8 6 7 8 8 5 3 3 4 3 2 4 3 2 1 0 0 0 0 0 0 0 0 0 0 0 0 0 0 0 0 0 0 0 0 0 0 0
3 3 6 3 3 3 3 3 3 2 3 3 1 0 0 0 0 0 0 0 0 0 0 0 0 0 0 0 0 0 0 0 0 0 0 0 0 0
0 1 3 3 1 3 1 3 1 1 1 0 0 0 0 0 0 0 0 0 0 0 0 0 0 0 0 0 0 0 0 0 0 0 0 0 0 0
1 1 1 1 1 1 0 1 0 0 0 0 0 0 0 0 0 0 0 0 0 0 0 0 0 0 0 0 0 0 0 0 0 0 0 0 0 0
2 1 1 1 0 0 0 0 0 0 0 0 0 0 0 0 0 0 0 0 0 0 0 0 0 0 0 0 0 0 0 0 0 0 0 0 0 0
0 0 0 0 0 0 0 0 0 0 0 0 0 0 0 0 0 0 0 0 0 0 0 0 0 0 0 0 0 0 0 0 0 0 0 0 0 0
0 0 0 0 0 0 0 0 0 0 0 0 0 0 0 0 0 0 0 0 0 0 0 0 0 0 0 0 0 0 0 0 0 0 0 0 0 0
0 0 0 0 0 0 0 0 0 0 0 0 0 0 0 0 0 0 0 0 0 0 0 0 0 0 0 0 0 0 0 0 0 0 0 0 0 0
CIN
-27 -16 -0 -0 -0 -0 -0 -0 -0 -0 -0 -0 -0 -42 -48 -64 -68 -106 -0 -0 -0 -0 -0 -0 -0 -0 -0 -0 -0 -0 -0 -0 -0 -0 -0 -0 -0 -0
-1 -17 -0 -0 -0 -0 -0 -0 -0 -0 -5 -0 -0 -40 -50 -55 -52 -66 -13 -0 -0 -0 -0 -0 -0 -0 -0 -0 -0 -0 -0 -0 -0 -0 -0 -0 -0 -0
-0 -11 -0 -0 -0 -0 -0 -0 -0 -0 -0 -0 -31 -35 -52 -49 -81 -0 -0 -0 -0 -0 -0 -0 -0 -0 -0 -0 -0 -0 -0 -0 -0 -0 -0 -0 -0 -0
-0 -0 -0 -0 -0 -0 -0 -0 -0 -0 -0 -31 -21 -23 -33 -93 -134 -100 -0 -0 -0 -0 -0 -0 -0 -0 -0 -0 -0 -0 -0 -0 -0 -0 -0 -0 -0 -0
-0 -0 -10 -0 -2 -0 -0 -0 -0 -0 -0 -0 -7 -18 -46 -93 -0 -0 -0 -0 -0 -0 -0 -0 -0 -0 -0 -0 -0 -0 -0 -0 -0 -0 -0 -0 -0 -0
-0 -0 -0 -0 -1 -1 -0 -0 -0 -0 -0 -17 -15 -23 -28 -55 -0 -0 -0 -0 -0 -0 -0 -0 -0 -0 -0 -0 -0 -0 -0 -0 -0 -0 -0 -0 -0 -0
-0 -0 -0 -0 -0 -0 -0 -0 -0 -0 -0 -0 -3 -23 -30 -9 -27 -0 -0 -0 -0 -0 -0 -0 -0 -0 -0 -0 -0 -0 -0 -0 -0 -0 -0 -0 -0 -0
-0 -0 -0 -0 -0 -0 -0 -0 -57 -0 -25 -13 -0 -0 -7 -26 -0 -0 -0 -0 -0 -0 -0 -0 -0 -0 -0 -0 -0 -0 -0 -0 -0 -0 -0 -0 -0 -0
-0 -0 -0 -0 -0 -0 -0 -0 -0 -0 -0 -0 -8 -0 -16 -38 -0 -0 -0 -0 -0 -0 -0 -0 -0 -0 -0 -0 -0 -0 -0 -0 -0 -0 -0 -0 -0 -0
-0 -0 -0 -0 -0 -0 -0 -0 -0 -0 -0 -0 -0 -0 -0 -0 -0 -0 -0 -0 -0 -0 -0 -0 -0 -0 -0 -0 -0 -0 -0 -0 -0 -0 -0 -0 -0 -0
-0 -0 -0 -0 -0 -0 -0 -0 -0 -0 -0 -0 -0 -0 -0 -0 -0 -0 -0 -0 -0 -0 -0 -0 -0 -0 -0 -0 -0 -0 -0 -0 -0 -0 -0 -0 -0 -0
-0 -0 -0 -0 -0 -0 -0 -0 -0 -0 -0 -0 -0 -0 -0 -0 -0 -0 -0 -0 -0 -0 -0 -0 -0 -0 -0 -0 -0 -0 -0 -0 -0 -0 -0 -0 -0 -0
-0 -0 -0 -0 -0 -0 -0 -0 -0 -0 -0 -0 -0 -0 -0 -0 -0 -0 -0 -0 -0 -0 -0 -0 -0 -0 -0 -0 -0 -0 -0 -0 -0 -0 -0 -0 -0 -0
-0 -0 -0 -0 -0 -0 -0 -0 -0 -0 -0 -0 -0 -0 -0 -0 -0 -0 -0 -0 -0 -0 -0 -0 -0 -0 -0 -0 -0 -0 -0 -0 -0 -0 -0 -0 -0 -0
-0 -0 -0 -0 -0 -0 -0 -0 -0 -0 -0 -0 -0 -0 -0 -0 -0 -0 -0 -0 -0 -0 -0 -0 -0 -0 -0 -0 -0 -0 -0 -0 -0 -0 -0 -0 -0 -0
-0 -0 -0 -0 -0 -0 -0 -0 -0 -0 -0 -0 -0 -0 -0 -0 -0 -0 -0 -0 -0 -0 -0 -0 -0 -0 -0 -0 -0 -0 -0 -0 -0 -0 -0 -0 -0 -0
-0 -0 -0 -0 -0 -0 -0 -0 -0 -0 -0 -0 -0 -0 -0 -0 -0 -0 -0 -0 -0 -0 -0 -0 -0 -0 -0 -0 -0 -0 -0 -0 -0 -0 -0 -0 -0 -0
-0 -0 -0 -0 -0 -0 -0 -0 -0 -0 -0 -0 -0 -0 -0 -0 -0 -0 -0 -0 -0 -0 -0 -0 -0 -0 -0 -0 -0 -0 -0 -0 -0 -0 -0 -0 -0 -0
-0 -0 -0 -0 -0 -0 -0 -0 -0 -0 -0 -0 -0 -0 -0 -0 -0 -0 -0 -0 -0 -0 -0 -0 -0 -0 -0 -0 -0 -0 -0 -0 -0 -0 -0 -0 -0 -0
-0 -0 -0 -0 -0 -0 -0 -0 -0 -0 -0 -0 -0 -0 -0 -0 -0 -0 -0 -0 -0 -0 -0 -0 -0 -0 -0 -0 -0 -0 -0 -0 -0 -0 -0 -0 -0 -0
-0 -0 -0 -0 -0 -0 -0 -0 -0 -0 -0 -0 -0 -0 -0 -0 -0 -0 -0 -0 -0 -0 -0 -0 -0 -0 -0 -0 -0 -0 -0 -0 -0 -0 -0 -0 -0 -0
-0 -0 -0 -0 -0 -0 -0 -0 -0 -0 -0 -0 -0 -0 -0 -0 -0 -0 -0 -0 -0 -0 -0 -0 -0 -0 -0 -0 -0 -0 -0 -0 -0 -0 -0 -0 -0 -0
-0 -0 -0 -0 -0 -0 -0 -0 -0 -0 -0 -0 -0 -0 -0 -0 -0 -0 -0 -0 -0 -0 -0 -0 -0 -0 -0 -0 -0 -0 -0 -0 -0 -0 -0 -0 -0 -0
Wind_Speed
11 9 9 7 8 8 9 12 12 19 22 23 21 21 19 18 16 17 18 19 14 14 12 12 11 10 13 15 19 21 21 22 22 23 23 23 26 26
10 9 7 8 9 9 10 12 11 14 18 21 20 21 16 18 21 20 19 17 14 12 13 14 13 13 17 20 23 23 22 20 21 22 21 19 18 20
10 10 8 8 10 10 12 11 13 16 22 22 19 20 20 16 18 18 19 17 17 17 19 18 16 18 20 18 22 21 18 18 18 15 14 16 18 20
10 10 9 8 9 10 11 11 10 13 18 18 14 20 21 15 16 15 14 15 15 15 14 16 16 16 15 15 14 16 15 13 15 16 17 19 22 24
10 10 9 8 10 11 10 11 8 8 11 15 17 23 20 12 12 12 12 12 12 11 11 10 12 12 14 14 15 15 14 15 17 18 21 24 26 28
10 10 8 9 8 10 11 10 9 9 7 6 15 18 18 15 13 11 11 13 11 13 14 13 13 14 15 15 16 16 16 17 18 20 22 24 25 26
9 8 8 9 11 9 10 10 11 10 9 7 7 13 12 12 12 13 11 10 14 15 14 14 15 16 16 15 15 15 15 16 18 21 22 24 25 27
10 9 9 8 9 11 11 12 14 14 11 12 11 11 12 14 13 10 9 11 16 16 18 19 17 17 15 15 13 15 17 18 20 21 23 24 26 28
11 9 10 7 8 8 8 10 17 16 18 17 17 14 13 10 9 11 15 20 22 17 18 19 16 17 15 14 14 16 18 19 21 23 25 26 26 28
11 8 10 10 7 6 6 8 12 18 20 17 16 19 17 16 17 19 17 19 20 17 18 21 17 18 16 17 16 17 19 21 23 25 25 25 27 28
12 12 9 7 4 3 4 5 6 7 9 8 8 12 13 14 14 15 18 18 22 20 19 20 17 18 18 18 18 18 20 23 23 25 24 24 26 26
11 12 11 5 3 4 2 3 3 6 7 8 11 12 14 16 18 19 15 16 19 23 19 20 16 19 22 21 20 20 22 22 23 22 24 23 23 24
11 12 13 6 2 2 1 2 3 2 5 7 9 11 12 14 16 18 19 18 21 24 18 19 19 19 22 22 20 19 19 21 19 20 21 23 23 22
11 11 10 7 5 5 5 2 1 3 6 9 11 13 14 15 16 16 17 17 18 17 13 17 20 19 21 22 22 17 18 19 18 18 21 23 23 23
8 6 5 5 5 6 5 5 5 7 8 9 11 12 13 13 13 14 14 15 16 17 18 19 15 14 16 17 16 15 15 18 18 20 23 23 23 22
7 7 6 6 7 8 9 11 10 9 9 10 10 11 12 13 13 14 14 15 15 17 17 16 13 11 13 13 13 15 17 19 20 23 24 24 23 24
5 9 8 7 8 9 10 10 9 7 8 9 9 10 11 11 13 14 14 14 13 13 13 14 14 14 14 12 16 17 19 21 23 24 25 26 25 23
6 9 8 12 10 11 9 8 9 8 8 7 8 9 10 10 11 11 11 11 11 12 13 13 13 14 16 19 17 18 21 22 23 25 25 27 28 25
4 8 11 10 9 5 7 8 7 8 7 7 7 7 8 9 9 10 10 11 13 15 16 16 17 18 21 24 21 19 23 24 25 27 27 27 29 28
8 7 5 6 6 6 6 7 7 7 8 8 8 8 8 9 9 11 12 12 14 16 18 19 19 20 21 22 23 23 22 26 27 29 30 29 28 27
9 7 8 7 7 7 8 9 9 9 9 9 10 10 10 11 12 13 14 13 15 17 19 21 21 19 19 21 25 26 26 25 27 27 29 30 30 29
9 9 9 10 9 9 9 9 10 10 10 10 11 11 12 13 13 14 15 16 18 19 20 21 22 21 23 25 27 28 29 30 28 26 28 27 29 30
11 10 10 10 11 10 10 11 11 11 12 12 12 13 13 14 15 16 17 18 20 22 23 23 24 24 25 26 27 29 31 31 31 31 31 31 31 28
Wind_Direction
276 270 275 261 262 251 248 241 241 267 248 253 262 257 259 253 247 253 252 257 239 222 234 243 229 252 278 285 293 301 305 305 304 305 307 307 307 308
278 270 263 269 259 264 263 259 242 259 257 260 256 268 254 253 257 256 259 263 257 242 250 263 267 277 287 292 296 300 304 306 306 306 306 310 316 318
273 272 241 262 265 262 264 246 246 252 264 261 265 257 265 251 257 261 262 268 277 275 273 277 280 284 288 295 301 307 311 314 313 316 319 319 320 320
261 267 246 259 258 268 266 248 202 240 257 263 255 254 265 259 255 260 268 275 278 282 287 291 293 298 299 304 312 319 321 323 319 320 318 318 319 318
260 258 253 243 256 265 254 248 235 203 251 256 254 255 261 260 264 266 272 277 285 293 301 307 312 310 314 313 315 319 318 313 314 312 314 314 315 316
263 257 232 218 233 249 242 232 225 228 219 236 253 252 259 264 257 251 266 278 276 295 304 309 315 315 314 312 312 313 315 316 315 314 316 316 318 319
260 251 237 214 199 225 249 237 235 205 217 206 237 258 255 254 239 256 264 267 285 291 303 307 308 311 316 316 316 316 318 319 318 319 318 319 318 318
261 259 259 234 206 201 235 241 226 231 222 240 244 249 254 264 256 236 262 272 287 293 298 296 303 304 309 316 316 317 318 318 319 320 321 320 320 320
269 265 270 255 220 223 254 266 262 255 246 241 242 248 248 250 246 245 271 282 290 292 295 296 300 301 306 310 310 315 317 317 317 319 320 320 321 323
272 274 274 278 275 247 250 278 279 271 270 266 256 269 257 263 269 269 276 285 295 298 299 298 296 300 302 307 310 312 313 316 317 319 321 321 322 324
279 283 282 281 262 229 240 261 282 299 308 294 285 285 279 277 278 280 280 280 287 295 298 303 298 302 303 306 309 313 315 316 317 318 320 323 324 327
276 282 285 282 174 159 192 197 248 277 287 289 294 296 292 290 292 289 285 280 290 296 298 300 299 301 303 303 306 311 314 315 318 321 324 326 329 330
268 276 282 275 205 231 204 199 272 254 297 303 304 304 304 304 303 301 298 292 293 298 301 302 299 301 309 311 308 312 316 320 323 327 331 332 332 332
264 277 285 285 277 283 290 273 267 291 295 298 297 300 301 303 307 311 313 312 312 310 308 310 306 300 306 309 309 312 317 322 327 330 331 332 332 333
267 280 298 303 306 302 298 294 300 289 289 293 297 301 307 312 313 318 323 327 330 326 322 318 316 311 314 315 317 319 323 329 332 330 331 331 331 331
264 274 295 309 310 302 298 302 304 300 293 290 295 304 310 313 316 320 322 324 327 331 342 347 345 338 336 337 332 327 328 327 331 331 332 332 333 333
258 275 284 301 306 311 307 309 315 313 308 303 304 309 315 318 322 325 329 333 331 333 340 349 355 355 352 348 334 333 331 330 332 332 332 330 330 333
272 270 307 296 299 302 301 305 309 321 316 315 320 322 324 327 336 344 352 345 346 343 339 339 345 342 339 341 342 333 331 331 332 333 333 330 328 327
327 305 318 308 299 323 313 316 326 337 340 340 339 346 350 352 344 345 347 345 342 340 337 334 329 326 323 319 329 337 331 330 330 329 330 329 326 326
7 354 345 334 341 326 338 355 359 357 359 0 359 1 3 352 348 343 341 340 339 337 337 338 335 330 324 323 325 329 334 329 328 327 328 330 328 327
7 4 360 354 355 357 4 11 14 9 6 357 353 351 347 344 341 340 340 339 336 334 332 332 333 338 337 333 327 326 330 335 332 328 328 328 328 328
2 359 0 11 9 11 11 10 3 1 360 355 351 348 345 341 339 338 336 334 332 332 332 333 335 334 332 329 326 327 328 331 333 332 331 330 326 323
355 357 356 356 3 5 358 356 355 353 353 351 348 344 342 339 338 337 335 333 330 329 328 327 329 331 330 330 328 327 328 329 330 328 328 329 325 318